Location: Driftpile
(55.3500°N, 115.7667°W)
Time: 01:39:40
(UTC+00:00)

N. Korean satellite - Pass Details

Date: 06 December 2021
Orbit: 446 x 492 km, 97.3° (Epoch: 17 January)

Event Time Altitude Azimuth Distance (km) Brightness Sun altitude
Rises 00:20:21 0° 181° (S) 2,522 10.6 -8.6°
Reaches altitude 10° 00:22:29 10° 188° (S) 1,640 9.7 -8.8°
Maximum altitude 00:25:51 43° 261° (W) 672 7.9 -9.3°
Drops below altitude 10° 00:29:12 10° 334° (NNW) 1,627 9.2 -9.7°
Sets 00:31:19 0° 342° (NNW) 2,499 10.1 -10.0°
